Weather in Zoutelande

Netherlands     51°30′06″N   3°28′56″E
temp.,
°C
wind,
m/s
gust,
m/s
humid.,
%
clouds,
%
prec.,
mm/h
press.,
hPa
HPBL,
m
20 april, tue
tue2023:00+9n11835 0.0 101911
02:00+9s11825 0.0 101910
05:00+8ese11846 0.0 101810
08:00+8e228498 0.0 101818
11:00+9nne22808 0.0 101958
14:00+9n548030 0.0 1018204
17:00+9n678187 0.0 1017139
20:00+10nne578196 0.0 101790
21 april, wed
wed2123:00+9nne4584100 0.0 101763
02:00+9nne4681100 0.0 101769
05:00+9n358199 0.0 101768
08:00+9n467798 0.0 1018104
11:00+9nne71084100 0.0 1019299
14:00+8nne9108521 0.0 1020409
17:00+8nne1011775 0.0 1021495
20:00+7nne1112745 0.0 1021686
22 april, thu
thu2223:00+7ne9116971 0.0 1023872
02:00+7ne68637 0.0 1024948
05:00+7ne6764100 0.0 1025986
08:00+7nne776788 0.0 10251035
11:00+7nne676758 0.0 10271049
14:00+7nne676592 0.0 10271010
17:00+8nne786639 0.0 1027939
20:00+8nne68755 0.0 1028799
23 april, fri
fri2323:00+7nne67791 0.0 1029621
02:00+7ne56780 0.0 1029522
05:00+7ne45780 0.0 1029511
08:00+7ne34784 0.0 1030523
11:00+8nne44783 0.0 1031478
14:00+8n55795 0.0 1031411
17:00+8nne67785 0.0 1030397
20:00+8nne78795 0.0 1030349
24 april, sat
sat2423:00+8ne68801 0.0 1030317
02:00+8ene578071 0.0 1030314
05:00+7ene4674100 0.0 1030308
08:00+6ene4678100 0.0 1030269
11:00+8ne5772100 0.0 1030440
14:00+8nne6779100 0.0 1030352
17:00+8nne797891 0.0 1029390
20:00+8nne710840 0.0 1029429